Simultaneous Nadir Overpasses (SNOs) Predictions

Prediction of SNOs between NOAA-20 and LANDSAT-8 Satellite Orbit:

Table of predicted SNOs for the next 14.0 days since TLE Epoch: 1/28/2024
Index Date (NOAA-20) Time (NOAA-20) Lat,Lon (NOAA-20) SZA (NOAA-20 ) Date (LANDSAT-8) Time (LANDSAT-8) Lat,Lon (LANDSAT-8) SZA (LANDSAT-8 ) Distance(km) Time Diff (sec)
1 01/30/2024 06:32:40 -70.19,-101.96 92.00 01/30/2024 06:33:43 -70.17,-101.91 92.03 3.01 63
2 01/30/2024 07:23:24 70.07, 65.54 87.87 01/30/2024 07:23:10 70.07, 65.59 87.87 1.68 14
3 01/30/2024 08:13:58 -69.56,-126.39 92.68 01/30/2024 08:12:47 -69.58,-127.46 92.61 41.62 71
4 02/01/2024 22:49:36 -70.16, 13.86 92.78 02/01/2024 22:50:14 -70.16, 13.94 92.78 3.05 38
5 02/01/2024 23:40:20 70.03,-178.64 87.08 02/01/2024 23:39:42 70.00,-178.64 87.06 3.36 38
6 02/04/2024 14:15:58 70.68, -38.52 87.02 02/04/2024 14:17:08 70.55, -37.25 86.82 49.32 70
7 02/04/2024 15:06:31 -70.13, 129.68 93.59 02/04/2024 15:06:44 -70.12, 129.75 93.60 3.01 13
8 02/04/2024 15:57:15 70.00, -62.83 86.28 02/04/2024 15:56:11 70.01, -62.76 86.29 2.76 64
9 02/07/2024 06:32:44 70.14, 78.11 85.63 02/07/2024 06:33:45 70.15, 78.04 85.63 2.91 61
10 02/07/2024 07:23:26 -70.05,-114.44 94.48 02/07/2024 07:23:15 -70.05,-114.48 94.48 1.53 11
11 02/07/2024 08:14:00 69.40, 53.83 84.83 02/07/2024 08:12:51 69.44, 52.33 84.94 58.70 69
12 02/09/2024 22:49:40 70.13,-166.11 84.77 02/09/2024 22:50:14 70.15,-166.08 84.79 2.69 34
13 02/09/2024 23:40:22 -70.04, 1.34 95.34 02/09/2024 23:39:44 -70.05, 1.41 95.33 2.54 38



Historial Predications of SNOs between NOAA-20 and LANDSAT-8
